Location: Kerb�bon
(47.7970°N, 3.3487°W)
Time: 09:16:18
(UTC+00:00)

Cosmos 1553 Rocket - Pass Details

Date: 12 May 2021
Orbit: 942 x 1007 km, 82.9° (Epoch: 20 June)

Event Time Altitude Azimuth Distance (km) Brightness Sun altitude
Rises 20:17:09 0° 195° (SSW) 3,616 6.8 -5.9°
Reaches altitude 10° 20:19:38 10° 198° (SSW) 2,682 6.1 -6.3°
Maximum altitude 20:25:45 69° 281° (WNW) 1,037 4.4 -7.1°
Drops below altitude 10° 20:32:01 10° 5° (N) 2,745 6.9 -7.9°
Sets 20:34:36 0° 8° (N) 3,706 7.5 -8.2°
